Time,TemperatureF,DewpointF,PressureIn,WindDirection,WindDirectionDegrees,WindSpeedMPH,WindSpeedGustMPH,Humidity,HourlyPrecipIn,Conditions,Clouds,dailyrainin,SolarRadiationWatts/m^2,SoftwareType,DateUTC
2013-05-05 00:03:00,42.1,40.5,30.16,NNW,348,10.0,13.0,94,0.00,,,0.00,0,Wunderground v.1.15,2013-05-05 05:03:00,
2013-05-05 00:08:00,42.1,40.5,30.16,North,351,12.0,15.0,94,0.00,,,0.00,0,Wunderground v.1.15,2013-05-05 05:08:00,
2013-05-05 00:13:00,42.0,40.4,30.16,North,5,12.0,13.0,94,0.00,,,0.00,0,Wunderground v.1.15,2013-05-05 05:13:00,
2013-05-05 00:18:00,42.0,40.4,30.16,NNW,344,12.0,15.0,94,0.00,,,0.00,0,Wunderground v.1.15,2013-05-05 05:18:00,
2013-05-05 00:23:00,41.9,40.6,30.16,North,360,11.0,12.0,95,0.00,,,0.00,0,Wunderground v.1.15,2013-05-05 05:23:00,
2013-05-05 00:28:00,41.9,40.6,30.16,North,5,10.0,15.0,95,0.00,,,0.00,0,Wunderground v.1.15,2013-05-05 05:28:00,
2013-05-05 00:34:00,42.0,40.7,30.16,North,350,12.0,16.0,95,0.00,,,0.00,0,Wunderground v.1.15,2013-05-05 05:34:00,
2013-05-05 00:40:00,42.0,40.7,30.16,NNW,337,13.0,13.0,95,0.00,,,0.00,0,Wunderground v.1.15,2013-05-05 05:40:00,
2013-05-05 00:46:00,42.0,40.7,30.15,NNW,346,12.0,15.0,95,0.00,,,0.00,0,Wunderground v.1.15,2013-05-05 05:46:00,
2013-05-05 00:52:00,42.0,40.7,30.16,North,5,11.0,14.0,95,0.00,,,0.00,0,Wunderground v.1.15,2013-05-05 05:52:00,
2013-05-05 00:57:00,42.0,40.7,30.15,North,355,10.0,14.0,95,0.00,,,0.00,0,Wunderground v.1.15,2013-05-05 05:57:00,
2013-05-05 01:02:00,41.9,40.6,30.16,North,355,10.0,14.0,95,0.00,,,0.00,0,Wunderground v.1.15,2013-05-05 06:02:00,
2013-05-05 01:07:00,41.9,40.6,30.16,NNW,341,11.0,15.0,95,0.00,,,0.00,0,Wunderground v.1.15,2013-05-05 06:07:00,
2013-05-05 01:13:00,41.9,40.6,30.15,North,5,12.0,17.0,95,0.00,,,0.01,0,Wunderground v.1.15,2013-05-05 06:13:00,
2013-05-05 01:19:00,41.9,40.6,30.15,North,355,12.0,17.0,95,0.00,,,0.01,0,Wunderground v.1.15,2013-05-05 06:19:00,
2013-05-05 01:25:00,42.0,40.7,30.15,NNW,344,11.0,14.0,95,0.00,,,0.01,0,Wunderground v.1.15,2013-05-05 06:25:00,
2013-05-05 01:31:00,42.0,40.7,30.15,North,5,11.0,13.0,95,0.00,,,0.01,0,Wunderground v.1.15,2013-05-05 06:31:00,
2013-05-05 01:37:00,42.0,40.7,30.15,North,355,11.0,15.0,95,0.00,,,0.01,0,Wunderground v.1.15,2013-05-05 06:37:00,
2013-05-05 01:42:00,42.1,40.8,30.16,North,5,10.0,11.0,95,0.00,,,0.01,0,Wunderground v.1.15,2013-05-05 06:42:00,
2013-05-05 01:47:00,42.1,40.8,30.16,North,5,9.0,11.0,95,0.00,,,0.01,0,Wunderground v.1.15,2013-05-05 06:47:00,
2013-05-05 01:52:00,42.1,40.5,30.16,NNE,22,9.0,11.0,94,0.00,,,0.01,0,Wunderground v.1.15,2013-05-05 06:52:00,
2013-05-05 01:58:00,42.1,40.5,30.15,North,355,9.0,15.0,94,0.00,,,0.01,0,Wunderground v.1.15,2013-05-05 06:58:00,
2013-05-05 02:04:00,42.2,40.6,30.15,North,5,10.0,12.0,94,0.00,,,0.01,0,Wunderground v.1.15,2013-05-05 07:04:00,
2013-05-05 02:10:00,42.2,40.6,30.15,NNW,343,10.0,10.0,94,0.00,,,0.01,0,Wunderground v.1.15,2013-05-05 07:10:00,
2013-05-05 02:15:00,42.1,40.5,30.14,NNW,345,11.0,13.0,94,0.00,,,0.01,0,Wunderground v.1.15,2013-05-05 07:15:00,
2013-05-05 02:20:00,42.2,40.6,30.14,NNW,348,11.0,11.0,94,0.00,,,0.01,0,Wunderground v.1.15,2013-05-05 07:20:00,
2013-05-05 02:25:00,42.1,40.5,30.14,North,355,11.0,16.0,94,0.00,,,0.01,0,Wunderground v.1.15,2013-05-05 07:25:00,
2013-05-05 02:30:00,42.1,40.5,30.14,NNW,348,11.0,12.0,94,0.00,,,0.01,0,Wunderground v.1.15,2013-05-05 07:30:00,
2013-05-05 02:36:00,42.2,40.6,30.14,NNW,342,12.0,16.0,94,0.00,,,0.01,0,Wunderground v.1.15,2013-05-05 07:36:00,
2013-05-05 02:42:00,42.1,40.5,30.14,NNW,348,11.0,14.0,94,0.00,,,0.01,0,Wunderground v.1.15,2013-05-05 07:42:00,
2013-05-05 02:47:00,42.1,40.5,30.14,North,350,11.0,14.0,94,0.00,,,0.01,0,Wunderground v.1.15,2013-05-05 07:47:00,
2013-05-05 02:52:00,42.1,40.5,30.14,NNW,333,10.0,13.0,94,0.00,,,0.01,0,Wunderground v.1.15,2013-05-05 07:52:00,
2013-05-05 02:57:00,42.0,40.4,30.14,North,5,11.0,13.0,94,0.00,,,0.01,0,Wunderground v.1.15,2013-05-05 07:57:00,
2013-05-05 03:03:00,42.1,40.5,30.14,NNW,348,12.0,16.0,94,0.00,,,0.01,0,Wunderground v.1.15,2013-05-05 08:03:00,
2013-05-05 03:08:00,42.1,40.5,30.14,North,351,11.0,16.0,94,0.00,,,0.01,0,Wunderground v.1.15,2013-05-05 08:08:00,
2013-05-05 03:13:00,42.1,40.5,30.14,NNW,342,11.0,11.0,94,0.00,,,0.01,0,Wunderground v.1.15,2013-05-05 08:13:00,
2013-05-05 03:18:00,42.1,40.5,30.14,NNW,344,11.0,11.0,94,0.00,,,0.01,0,Wunderground v.1.15,2013-05-05 08:18:00,
2013-05-05 03:24:00,42.1,40.5,30.14,North,360,11.0,15.0,94,0.00,,,0.01,0,Wunderground v.1.15,2013-05-05 08:24:00,
2013-05-05 03:30:00,42.1,40.5,30.14,North,349,12.0,12.0,94,0.00,,,0.01,0,Wunderground v.1.15,2013-05-05 08:30:00,
2013-05-05 03:36:00,42.1,40.8,30.14,North,355,11.0,15.0,95,0.00,,,0.01,0,Wunderground v.1.15,2013-05-05 08:36:00,
2013-05-05 03:42:00,42.0,40.7,30.14,North,5,10.0,13.0,95,0.00,,,0.01,0,Wunderground v.1.15,2013-05-05 08:42:00,
2013-05-05 03:47:00,42.0,40.7,30.14,North,360,9.0,13.0,95,0.00,,,0.01,0,Wunderground v.1.15,2013-05-05 08:47:00,
2013-05-05 03:52:00,42.0,40.7,30.14,North,11,11.0,13.0,95,0.00,,,0.01,0,Wunderground v.1.15,2013-05-05 08:52:00,
2013-05-05 03:58:00,42.0,40.7,30.14,North,355,11.0,13.0,95,0.00,,,0.01,0,Wunderground v.1.15,2013-05-05 08:58:00,
2013-05-05 04:03:00,42.0,40.7,30.14,North,355,10.0,10.0,95,0.00,,,0.01,0,Wunderground v.1.15,2013-05-05 09:03:00,
2013-05-05 04:08:00,42.0,40.7,30.15,North,5,10.0,15.0,95,0.00,,,0.01,0,Wunderground v.1.15,2013-05-05 09:08:00,
2013-05-05 04:13:00,42.0,40.7,30.14,North,355,11.0,15.0,95,0.00,,,0.01,0,Wunderground v.1.15,2013-05-05 09:13:00,
2013-05-05 04:19:00,42.0,40.7,30.14,North,360,11.0,16.0,95,0.00,,,0.01,0,Wunderground v.1.15,2013-05-05 09:19:00,
2013-05-05 04:25:00,41.9,40.6,30.15,NNW,344,11.0,15.0,95,0.00,,,0.01,0,Wunderground v.1.15,2013-05-05 09:25:00,
2013-05-05 04:31:00,41.8,40.5,30.15,NNW,337,10.0,13.0,95,0.00,,,0.01,0,Wunderground v.1.15,2013-05-05 09:31:00,
2013-05-05 04:37:00,41.8,40.5,30.14,NNW,338,12.0,18.0,95,0.00,,,0.01,0,Wunderground v.1.15,2013-05-05 09:37:00,
2013-05-05 04:42:00,41.7,40.4,30.15,North,351,13.0,13.0,95,0.00,,,0.01,0,Wunderground v.1.15,2013-05-05 09:42:00,
2013-05-05 04:47:00,41.7,40.4,30.15,North,350,12.0,13.0,95,0.00,,,0.01,0,Wunderground v.1.15,2013-05-05 09:47:00,
2013-05-05 04:52:00,41.7,40.4,30.15,North,355,11.0,15.0,95,0.00,,,0.01,0,Wunderground v.1.15,2013-05-05 09:52:00,
2013-05-05 04:57:00,41.6,40.3,30.15,North,360,11.0,17.0,95,0.00,,,0.01,0,Wunderground v.1.15,2013-05-05 09:57:00,
2013-05-05 05:03:00,41.6,40.3,30.15,North,350,11.0,13.0,95,0.00,,,0.01,0,Wunderground v.1.15,2013-05-05 10:03:00,
2013-05-05 05:09:00,41.6,40.5,30.15,North,355,11.0,14.0,96,0.00,,,0.01,0,Wunderground v.1.15,2013-05-05 10:09:00,
2013-05-05 05:14:00,41.5,40.4,30.15,NNW,340,12.0,12.0,96,0.00,,,0.01,0,Wunderground v.1.15,2013-05-05 10:14:00,
2013-05-05 05:19:00,41.5,40.4,30.15,NNW,333,12.0,14.0,96,0.00,,,0.01,0,Wunderground v.1.15,2013-05-05 10:19:00,
2013-05-05 05:24:00,41.5,40.4,30.15,NNW,329,12.0,15.0,96,0.00,,,0.01,0,Wunderground v.1.15,2013-05-05 10:24:00,
2013-05-05 05:30:00,41.5,40.4,30.15,NNW,344,11.0,11.0,96,0.00,,,0.01,0,Wunderground v.1.15,2013-05-05 10:30:00,
2013-05-05 05:36:00,41.4,40.3,30.14,North,360,12.0,14.0,96,0.00,,,0.01,0,Wunderground v.1.15,2013-05-05 10:36:00,
2013-05-05 05:42:00,41.4,40.3,30.15,North,349,13.0,15.0,96,0.00,,,0.01,0,Wunderground v.1.15,2013-05-05 10:42:00,
2013-05-05 05:47:00,41.4,40.3,30.14,NNW,348,13.0,17.0,96,0.00,,,0.01,0,Wunderground v.1.15,2013-05-05 10:47:00,
2013-05-05 05:52:00,41.4,40.3,30.15,North,360,13.0,18.0,96,0.00,,,0.01,0,Wunderground v.1.15,2013-05-05 10:52:00,
2013-05-05 05:57:00,41.5,40.4,30.15,North,351,12.0,18.0,96,0.00,,,0.01,0,Wunderground v.1.15,2013-05-05 10:57:00,
2013-05-05 06:03:00,41.5,40.4,30.15,North,355,11.0,12.0,96,0.00,,,0.01,0,Wunderground v.1.15,2013-05-05 11:03:00,
2013-05-05 06:08:00,41.5,40.4,30.15,North,355,10.0,15.0,96,0.00,,,0.01,0,Wunderground v.1.15,2013-05-05 11:08:00,
2013-05-05 06:13:00,41.5,40.2,30.16,North,350,11.0,12.0,95,0.00,,,0.01,0,Wunderground v.1.15,2013-05-05 11:13:00,
2013-05-05 06:18:00,41.5,40.2,30.16,North,355,10.0,12.0,95,0.00,,,0.01,0,Wunderground v.1.15,2013-05-05 11:18:00,
2013-05-05 06:24:00,41.5,40.2,30.15,NNW,344,9.0,11.0,95,0.00,,,0.01,0,Wunderground v.1.15,2013-05-05 11:24:00,
2013-05-05 06:30:00,41.5,40.2,30.15,North,355,10.0,10.0,95,0.00,,,0.01,0,Wunderground v.1.15,2013-05-05 11:30:00,
2013-05-05 06:36:00,41.6,40.3,30.15,North,5,10.0,13.0,95,0.00,,,0.01,0,Wunderground v.1.15,2013-05-05 11:36:00,
2013-05-05 06:42:00,41.6,40.3,30.16,North,360,11.0,12.0,95,0.00,,,0.01,5,Wunderground v.1.15,2013-05-05 11:42:00,
2013-05-05 06:47:00,41.6,40.3,30.16,NNW,344,11.0,12.0,95,0.00,,,0.01,7,Wunderground v.1.15,2013-05-05 11:47:00,
2013-05-05 06:52:00,41.6,40.3,30.16,NNW,342,10.0,14.0,95,0.00,,,0.01,9,Wunderground v.1.15,2013-05-05 11:52:00,
2013-05-05 06:57:00,41.7,40.4,30.16,North,5,10.0,14.0,95,0.00,,,0.01,11,Wunderground v.1.15,2013-05-05 11:57:00,
2013-05-05 07:02:00,41.7,40.4,30.16,North,355,10.0,11.0,95,0.00,,,0.01,11,Wunderground v.1.15,2013-05-05 12:02:00,
2013-05-05 07:07:00,41.6,40.3,30.16,North,355,11.0,13.0,95,0.00,,,0.01,11,Wunderground v.1.15,2013-05-05 12:07:00,
2013-05-05 07:12:00,41.7,40.4,30.17,North,351,11.0,15.0,95,0.00,,,0.01,14,Wunderground v.1.15,2013-05-05 12:12:00,
2013-05-05 07:17:00,41.7,40.4,30.17,North,350,11.0,15.0,95,0.00,,,0.01,14,Wunderground v.1.15,2013-05-05 12:17:00,
2013-05-05 07:23:00,41.7,40.4,30.16,NNE,13,11.0,11.0,95,0.00,,,0.01,16,Wunderground v.1.15,2013-05-05 12:23:00,
2013-05-05 07:28:00,41.7,40.4,30.16,North,11,10.0,12.0,95,0.00,,,0.01,18,Wunderground v.1.15,2013-05-05 12:28:00,
2013-05-05 07:34:00,41.7,40.4,30.16,North,355,9.0,10.0,95,0.00,,,0.01,19,Wunderground v.1.15,2013-05-05 12:34:00,
2013-05-05 07:40:00,41.6,40.3,30.17,North,5,10.0,10.0,95,0.00,,,0.01,19,Wunderground v.1.15,2013-05-05 12:40:00,
2013-05-05 07:45:00,41.6,40.5,30.17,North,360,10.0,16.0,96,0.00,,,0.01,25,Wunderground v.1.15,2013-05-05 12:45:00,
2013-05-05 07:50:00,41.6,40.3,30.17,North,5,10.0,10.0,95,0.00,,,0.01,26,Wunderground v.1.15,2013-05-05 12:50:00,
2013-05-05 07:55:00,41.6,40.5,30.16,North,355,11.0,15.0,96,0.00,,,0.01,28,Wunderground v.1.15,2013-05-05 12:55:00,
2013-05-05 08:00:00,41.6,40.5,30.16,NNW,340,11.0,11.0,96,0.00,,,0.01,28,Wunderground v.1.15,2013-05-05 13:00:00,
2013-05-05 08:05:00,41.6,40.5,30.17,NNW,346,11.0,12.0,96,0.00,,,0.01,30,Wunderground v.1.15,2013-05-05 13:05:00,
2013-05-05 08:11:00,41.6,40.5,30.17,NNW,346,11.0,11.0,96,0.00,,,0.01,44,Wunderground v.1.15,2013-05-05 13:11:00,
2013-05-05 08:16:00,41.7,40.6,30.17,NW,325,10.0,14.0,96,0.00,,,0.01,62,Wunderground v.1.15,2013-05-05 13:16:00,
2013-05-05 08:21:00,41.8,40.7,30.17,North,355,12.0,12.0,96,0.00,,,0.01,70,Wunderground v.1.15,2013-05-05 13:21:00,
2013-05-05 08:26:00,41.9,40.8,30.17,NNW,344,12.0,12.0,96,0.00,,,0.01,69,Wunderground v.1.15,2013-05-05 13:26:00,
2013-05-05 08:32:00,42.0,40.9,30.17,NNW,338,10.0,14.0,96,0.00,,,0.01,76,Wunderground v.1.15,2013-05-05 13:32:00,
2013-05-05 08:37:00,42.2,41.1,30.17,NNW,346,11.0,14.0,96,0.00,,,0.01,67,Wunderground v.1.15,2013-05-05 13:37:00,
2013-05-05 08:42:00,42.3,41.0,30.17,North,355,11.0,12.0,95,0.00,,,0.01,62,Wunderground v.1.15,2013-05-05 13:42:00,
2013-05-05 08:47:00,42.2,40.9,30.17,North,355,11.0,16.0,95,0.00,,,0.01,56,Wunderground v.1.15,2013-05-05 13:47:00,
2013-05-05 08:52:00,42.3,41.0,30.18,North,355,11.0,12.0,95,0.00,,,0.01,47,Wunderground v.1.15,2013-05-05 13:52:00,
2013-05-05 08:57:00,42.3,41.0,30.18,NNW,346,10.0,13.0,95,0.00,,,0.01,49,Wunderground v.1.15,2013-05-05 13:57:00,
2013-05-05 09:03:00,42.3,41.0,30.18,North,5,11.0,13.0,95,0.00,,,0.01,49,Wunderground v.1.15,2013-05-05 14:03:00,
2013-05-05 09:08:00,42.3,41.0,30.18,North,360,10.0,13.0,95,0.00,,,0.01,51,Wunderground v.1.15,2013-05-05 14:08:00,
2013-05-05 09:13:00,42.4,41.1,30.18,North,355,11.0,12.0,95,0.00,,,0.01,54,Wunderground v.1.15,2013-05-05 14:13:00,
2013-05-05 09:18:00,42.4,41.1,30.18,North,360,11.0,12.0,95,0.00,,,0.01,65,Wunderground v.1.15,2013-05-05 14:18:00,
2013-05-05 09:24:00,42.5,41.2,30.18,NNW,345,11.0,16.0,95,0.00,,,0.01,76,Wunderground v.1.15,2013-05-05 14:24:00,
2013-05-05 09:29:00,42.6,41.3,30.18,North,355,12.0,16.0,95,0.00,,,0.01,67,Wunderground v.1.15,2013-05-05 14:29:00,
2013-05-05 09:35:00,42.6,41.3,30.18,North,355,13.0,17.0,95,0.00,,,0.01,67,Wunderground v.1.15,2013-05-05 14:35:00,
2013-05-05 09:41:00,42.7,41.4,30.18,North,355,13.0,13.0,95,0.00,,,0.01,63,Wunderground v.1.15,2013-05-05 14:41:00,
2013-05-05 09:46:00,42.7,41.4,30.18,NNW,333,11.0,15.0,95,0.00,,,0.01,62,Wunderground v.1.15,2013-05-05 14:46:00,
2013-05-05 09:52:00,42.6,41.3,30.18,NNW,346,12.0,15.0,95,0.00,,,0.01,62,Wunderground v.1.15,2013-05-05 14:52:00,
2013-05-05 09:57:00,42.7,41.4,30.18,North,350,12.0,15.0,95,0.00,,,0.01,74,Wunderground v.1.15,2013-05-05 14:57:00,
2013-05-05 10:02:00,42.8,41.5,30.18,North,355,11.0,13.0,95,0.00,,,0.01,97,Wunderground v.1.15,2013-05-05 15:02:00,
2013-05-05 10:07:00,43.1,42.0,30.18,North,360,10.0,15.0,96,0.00,,,0.01,118,Wunderground v.1.15,2013-05-05 15:07:00,
2013-05-05 10:13:00,43.3,42.0,30.18,North,9,11.0,11.0,95,0.00,,,0.01,107,Wunderground v.1.15,2013-05-05 15:13:00,
2013-05-05 10:19:00,43.4,42.1,30.18,NNE,14,10.0,14.0,95,0.00,,,0.01,86,Wunderground v.1.15,2013-05-05 15:19:00,
2013-05-05 10:25:00,43.5,42.2,30.18,North,351,9.0,10.0,95,0.00,,,0.01,63,Wunderground v.1.15,2013-05-05 15:25:00,
2013-05-05 10:30:00,43.5,42.2,30.18,North,355,8.0,8.0,95,0.00,,,0.01,81,Wunderground v.1.15,2013-05-05 15:30:00,
2013-05-05 10:35:00,43.6,42.3,30.18,North,350,9.0,14.0,95,0.00,,,0.01,93,Wunderground v.1.15,2013-05-05 15:35:00,
2013-05-05 10:40:00,43.7,42.4,30.18,NW,321,9.0,10.0,95,0.00,,,0.01,116,Wunderground v.1.15,2013-05-05 15:40:00,
2013-05-05 10:45:00,43.8,42.5,30.19,NNW,340,9.0,10.0,95,0.00,,,0.01,141,Wunderground v.1.15,2013-05-05 15:45:00,
2013-05-05 10:51:00,44.1,42.8,30.18,NNW,338,10.0,12.0,95,0.00,,,0.01,193,Wunderground v.1.15,2013-05-05 15:51:00,
2013-05-05 10:57:00,44.5,43.2,30.18,North,355,10.0,12.0,95,0.00,,,0.01,172,Wunderground v.1.15,2013-05-05 15:57:00,
2013-05-05 11:02:00,44.7,43.4,30.19,North,355,10.0,16.0,95,0.00,,,0.01,193,Wunderground v.1.15,2013-05-05 16:02:00,
2013-05-05 11:07:00,44.8,43.5,30.19,North,355,11.0,16.0,95,0.00,,,0.01,169,Wunderground v.1.15,2013-05-05 16:07:00,
2013-05-05 11:12:00,45.1,43.8,30.19,North,360,11.0,12.0,95,0.00,,,0.01,174,Wunderground v.1.15,2013-05-05 16:12:00,
2013-05-05 11:17:00,45.2,43.6,30.19,NNW,341,11.0,13.0,94,0.00,,,0.01,155,Wunderground v.1.15,2013-05-05 16:17:00,
2013-05-05 11:22:00,45.3,43.7,30.19,NNW,345,10.0,16.0,94,0.00,,,0.01,160,Wunderground v.1.15,2013-05-05 16:22:00,
2013-05-05 11:28:00,45.3,43.7,30.19,NNW,345,11.0,16.0,94,0.00,,,0.01,158,Wunderground v.1.15,2013-05-05 16:28:00,
2013-05-05 11:34:00,45.3,43.7,30.19,NNE,12,11.0,13.0,94,0.00,,,0.01,172,Wunderground v.1.15,2013-05-05 16:34:00,
2013-05-05 11:39:00,45.4,43.8,30.19,NNW,342,11.0,13.0,94,0.00,,,0.01,193,Wunderground v.1.15,2013-05-05 16:39:00,
2013-05-05 11:44:00,45.6,44.0,30.18,North,355,11.0,12.0,94,0.00,,,0.01,206,Wunderground v.1.15,2013-05-05 16:44:00,
2013-05-05 11:49:00,45.6,44.0,30.18,NNE,28,11.0,13.0,94,0.00,,,0.01,195,Wunderground v.1.15,2013-05-05 16:49:00,
2013-05-05 11:54:00,45.7,44.1,30.19,NNW,348,11.0,12.0,94,0.00,,,0.01,209,Wunderground v.1.15,2013-05-05 16:54:00,
2013-05-05 11:59:00,45.9,44.0,30.19,North,355,11.0,13.0,93,0.00,,,0.01,221,Wunderground v.1.15,2013-05-05 16:59:00,
2013-05-05 12:05:00,46.2,44.3,30.18,NNE,13,10.0,11.0,93,0.00,,,0.01,264,Wunderground v.1.15,2013-05-05 17:05:00,
2013-05-05 12:10:00,46.5,44.6,30.19,North,5,10.0,10.0,93,0.00,,,0.01,302,Wunderground v.1.15,2013-05-05 17:10:00,
2013-05-05 12:16:00,46.8,44.9,30.19,North,360,11.0,14.0,93,0.00,,,0.01,352,Wunderground v.1.15,2013-05-05 17:16:00,
2013-05-05 12:22:00,47.3,45.4,30.18,North,355,10.0,12.0,93,0.00,,,0.01,301,Wunderground v.1.15,2013-05-05 17:22:00,
2013-05-05 12:27:00,47.5,45.3,30.18,North,355,9.0,14.0,92,0.00,,,0.01,387,Wunderground v.1.15,2013-05-05 17:27:00,
2013-05-05 12:32:00,47.7,45.5,30.18,NNE,18,11.0,14.0,92,0.00,,,0.01,401,Wunderground v.1.15,2013-05-05 17:32:00,
2013-05-05 12:37:00,47.8,45.6,30.17,North,355,12.0,14.0,92,0.00,,,0.01,366,Wunderground v.1.15,2013-05-05 17:37:00,
2013-05-05 12:42:00,48.1,45.9,30.17,North,355,11.0,12.0,92,0.00,,,0.01,276,Wunderground v.1.15,2013-05-05 17:42:00,
2013-05-05 12:48:00,48.0,45.5,30.17,North,355,11.0,17.0,91,0.00,,,0.01,241,Wunderground v.1.15,2013-05-05 17:48:00,
2013-05-05 12:54:00,48.1,45.6,30.17,North,349,11.0,11.0,91,0.00,,,0.01,309,Wunderground v.1.15,2013-05-05 17:54:00,
2013-05-05 13:00:00,48.6,46.1,30.17,NNE,13,10.0,10.0,91,0.00,,,0.01,339,Wunderground v.1.15,2013-05-05 18:00:00,
2013-05-05 13:06:00,48.8,46.3,30.17,NNW,332,10.0,16.0,91,0.00,,,0.01,288,Wunderground v.1.15,2013-05-05 18:06:00,
2013-05-05 13:11:00,49.1,46.6,30.17,North,5,10.0,11.0,91,0.00,,,0.01,362,Wunderground v.1.15,2013-05-05 18:11:00,
2013-05-05 13:16:00,49.4,46.6,30.17,North,355,10.0,13.0,90,0.00,,,0.01,357,Wunderground v.1.15,2013-05-05 18:16:00,
2013-05-05 13:21:00,49.6,46.8,30.17,North,5,10.0,12.0,90,0.00,,,0.01,381,Wunderground v.1.15,2013-05-05 18:21:00,
2013-05-05 13:26:00,50.1,47.3,30.16,North,355,9.0,12.0,90,0.00,,,0.01,367,Wunderground v.1.15,2013-05-05 18:26:00,
2013-05-05 13:31:00,50.0,46.9,30.17,North,355,10.0,12.0,89,0.00,,,0.01,343,Wunderground v.1.15,2013-05-05 18:31:00,
2013-05-05 13:36:00,50.2,47.4,30.16,North,10,11.0,13.0,90,0.00,,,0.01,387,Wunderground v.1.15,2013-05-05 18:36:00,
2013-05-05 13:42:00,50.5,47.4,30.16,North,360,11.0,13.0,89,0.00,,,0.01,397,Wunderground v.1.15,2013-05-05 18:42:00,
2013-05-05 13:47:00,50.9,47.8,30.16,NNW,338,11.0,13.0,89,0.00,,,0.01,403,Wunderground v.1.15,2013-05-05 18:47:00,
2013-05-05 13:53:00,51.2,47.8,30.16,NNW,348,11.0,14.0,88,0.00,,,0.01,478,Wunderground v.1.15,2013-05-05 18:53:00,
2013-05-05 13:59:00,51.6,47.9,30.16,North,355,11.0,14.0,87,0.00,,,0.01,464,Wunderground v.1.15,2013-05-05 18:59:00,
2013-05-05 14:05:00,51.8,48.1,30.16,NW,319,11.0,14.0,87,0.00,,,0.01,422,Wunderground v.1.15,2013-05-05 19:05:00,
2013-05-05 14:11:00,51.8,48.4,30.16,NNW,346,11.0,11.0,88,0.00,,,0.01,459,Wunderground v.1.15,2013-05-05 19:11:00,
2013-05-05 14:17:00,51.9,48.2,30.15,North,355,12.0,12.0,87,0.00,,,0.01,411,Wunderground v.1.15,2013-05-05 19:17:00,
2013-05-05 14:22:00,52.1,48.3,30.16,North,355,11.0,16.0,87,0.00,,,0.01,415,Wunderground v.1.15,2013-05-05 19:22:00,
2013-05-05 14:27:00,52.2,48.4,30.16,North,355,11.0,16.0,87,0.00,,,0.01,401,Wunderground v.1.15,2013-05-05 19:27:00,
2013-05-05 14:32:00,52.3,48.2,30.15,NNW,335,12.0,14.0,86,0.00,,,0.01,359,Wunderground v.1.15,2013-05-05 19:32:00,
2013-05-05 14:37:00,52.4,48.3,30.15,NNW,346,11.0,14.0,86,0.00,,,0.01,278,Wunderground v.1.15,2013-05-05 19:37:00,
2013-05-05 14:42:00,52.3,47.9,30.15,NNW,335,11.0,13.0,85,0.00,,,0.01,285,Wunderground v.1.15,2013-05-05 19:42:00,
2013-05-05 14:47:00,52.5,48.4,30.15,NNW,336,11.0,13.0,86,0.00,,,0.01,413,Wunderground v.1.15,2013-05-05 19:47:00,
2013-05-05 14:53:00,52.9,48.5,30.15,NNW,342,11.0,16.0,85,0.00,,,0.01,413,Wunderground v.1.15,2013-05-05 19:53:00,
2013-05-05 14:59:00,53.0,48.6,30.15,NNW,338,12.0,16.0,85,0.00,,,0.01,422,Wunderground v.1.15,2013-05-05 19:59:00,
2013-05-05 15:05:00,53.1,48.7,30.15,NNW,330,12.0,14.0,85,0.00,,,0.01,376,Wunderground v.1.15,2013-05-05 20:05:00,
2013-05-05 15:10:00,53.1,49.0,30.15,North,355,13.0,13.0,86,0.00,,,0.01,352,Wunderground v.1.15,2013-05-05 20:10:00,
2013-05-05 15:15:00,53.1,48.7,30.14,NNW,344,12.0,15.0,85,0.00,,,0.01,341,Wunderground v.1.15,2013-05-05 20:15:00,
2013-05-05 15:20:00,53.3,48.9,30.14,NNW,339,11.0,11.0,85,0.00,,,0.01,330,Wunderground v.1.15,2013-05-05 20:20:00,
2013-05-05 15:26:00,53.3,48.6,30.14,NNW,342,11.0,14.0,84,0.00,,,0.01,374,Wunderground v.1.15,2013-05-05 20:26:00,
2013-05-05 15:32:00,53.5,48.8,30.14,North,5,12.0,12.0,84,0.00,,,0.01,381,Wunderground v.1.15,2013-05-05 20:32:00,
2013-05-05 15:37:00,53.4,48.7,30.13,NNW,336,12.0,16.0,84,0.00,,,0.01,403,Wunderground v.1.15,2013-05-05 20:37:00,
2013-05-05 15:42:00,53.8,49.4,30.13,NNW,346,11.0,12.0,85,0.00,,,0.01,380,Wunderground v.1.15,2013-05-05 20:42:00,
2013-05-05 15:47:00,54.0,49.0,30.13,North,360,11.0,13.0,83,0.00,,,0.01,390,Wunderground v.1.15,2013-05-05 20:47:00,
2013-05-05 15:52:00,53.7,49.0,30.13,NW,323,11.0,14.0,84,0.00,,,0.01,364,Wunderground v.1.15,2013-05-05 20:52:00,
2013-05-05 15:58:00,53.7,49.0,30.13,NNW,342,11.0,14.0,84,0.00,,,0.01,394,Wunderground v.1.15,2013-05-05 20:58:00,
2013-05-05 16:04:00,53.8,48.8,30.13,NNW,346,11.0,12.0,83,0.00,,,0.01,394,Wunderground v.1.15,2013-05-05 21:04:00,
2013-05-05 16:09:00,54.3,49.6,30.13,NNW,341,10.0,12.0,84,0.00,,,0.01,330,Wunderground v.1.15,2013-05-05 21:09:00,
2013-05-05 16:14:00,54.1,49.4,30.12,NNW,341,11.0,15.0,84,0.00,,,0.01,299,Wunderground v.1.15,2013-05-05 21:14:00,
2013-05-05 16:19:00,53.8,49.1,30.12,NNW,332,12.0,15.0,84,0.00,,,0.01,243,Wunderground v.1.15,2013-05-05 21:19:00,
2013-05-05 16:24:00,53.8,49.1,30.12,North,5,11.0,12.0,84,0.00,,,0.01,227,Wunderground v.1.15,2013-05-05 21:24:00,
2013-05-05 16:30:00,53.8,49.1,30.12,NNW,348,10.0,13.0,84,0.00,,,0.01,211,Wunderground v.1.15,2013-05-05 21:30:00,
2013-05-05 16:36:00,53.7,49.0,30.12,NNW,340,11.0,17.0,84,0.00,,,0.01,186,Wunderground v.1.15,2013-05-05 21:36:00,
2013-05-05 16:42:00,53.8,49.1,30.12,North,355,10.0,14.0,84,0.00,,,0.01,197,Wunderground v.1.15,2013-05-05 21:42:00,
2013-05-05 16:48:00,54.0,49.3,30.12,North,5,10.0,14.0,84,0.00,,,0.01,250,Wunderground v.1.15,2013-05-05 21:48:00,
2013-05-05 16:54:00,54.0,49.3,30.12,North,355,10.0,13.0,84,0.00,,,0.01,221,Wunderground v.1.15,2013-05-05 21:54:00,
2013-05-05 17:00:00,53.9,48.9,30.12,NNW,336,11.0,11.0,83,0.00,,,0.01,209,Wunderground v.1.15,2013-05-05 22:00:00,
2013-05-05 17:05:00,53.9,48.9,30.12,NNW,347,11.0,12.0,83,0.00,,,0.01,232,Wunderground v.1.15,2013-05-05 22:05:00,
2013-05-05 17:10:00,53.9,48.9,30.12,North,5,11.0,11.0,83,0.00,,,0.01,221,Wunderground v.1.15,2013-05-05 22:10:00,
2013-05-05 17:15:00,54.0,49.0,30.12,North,355,11.0,12.0,83,0.00,,,0.01,227,Wunderground v.1.15,2013-05-05 22:15:00,
2013-05-05 17:20:00,54.1,49.1,30.12,NNW,329,10.0,10.0,83,0.00,,,0.01,230,Wunderground v.1.15,2013-05-05 22:20:00,
2013-05-05 17:25:00,54.1,49.1,30.12,NW,311,10.0,14.0,83,0.00,,,0.01,176,Wunderground v.1.15,2013-05-05 22:25:00,
2013-05-05 17:30:00,53.9,48.9,30.12,North,355,11.0,12.0,83,0.00,,,0.01,169,Wunderground v.1.15,2013-05-05 22:30:00,
2013-05-05 17:36:00,53.7,48.7,30.12,NNW,344,12.0,14.0,83,0.00,,,0.01,160,Wunderground v.1.15,2013-05-05 22:36:00,
2013-05-05 17:42:00,53.7,48.7,30.12,North,355,12.0,15.0,83,0.00,,,0.01,192,Wunderground v.1.15,2013-05-05 22:42:00,
2013-05-05 17:48:00,53.7,48.7,30.12,North,5,12.0,16.0,83,0.00,,,0.01,174,Wunderground v.1.15,2013-05-05 22:48:00,
2013-05-05 17:54:00,54.0,49.0,30.12,NNW,337,10.0,12.0,83,0.00,,,0.01,216,Wunderground v.1.15,2013-05-05 22:54:00,
2013-05-05 17:59:00,54.1,49.1,30.12,North,355,10.0,15.0,83,0.00,,,0.01,253,Wunderground v.1.15,2013-05-05 22:59:00,
2013-05-05 18:05:00,54.2,49.1,30.12,North,360,11.0,15.0,83,0.00,,,0.01,227,Wunderground v.1.15,2013-05-05 23:05:00,
2013-05-05 18:10:00,54.2,49.1,30.12,NNW,340,12.0,12.0,83,0.00,,,0.01,227,Wunderground v.1.15,2013-05-05 23:10:00,
2013-05-05 18:15:00,54.3,49.2,30.12,North,351,11.0,13.0,83,0.00,,,0.01,230,Wunderground v.1.15,2013-05-05 23:15:00,
2013-05-05 18:20:00,54.5,49.4,30.12,North,355,10.0,10.0,83,0.00,,,0.01,218,Wunderground v.1.15,2013-05-05 23:20:00,
2013-05-05 18:26:00,54.6,49.2,30.12,NNW,346,9.0,12.0,82,0.00,,,0.01,105,Wunderground v.1.15,2013-05-05 23:26:00,
2013-05-05 18:32:00,54.4,49.0,30.12,NNE,17,8.0,8.0,82,0.00,,,0.01,98,Wunderground v.1.15,2013-05-05 23:32:00,
2013-05-05 18:37:00,54.3,49.2,30.12,NNW,341,8.0,10.0,83,0.00,,,0.01,100,Wunderground v.1.15,2013-05-05 23:37:00,
2013-05-05 18:42:00,54.3,49.2,30.11,NNW,333,8.0,13.0,83,0.00,,,0.01,97,Wunderground v.1.15,2013-05-05 23:42:00,
2013-05-05 18:47:00,54.2,49.1,30.11,NNW,340,10.0,14.0,83,0.00,,,0.01,107,Wunderground v.1.15,2013-05-05 23:47:00,
2013-05-05 18:53:00,54.1,49.4,30.12,North,350,11.0,11.0,84,0.00,,,0.01,132,Wunderground v.1.15,2013-05-05 23:53:00,
2013-05-05 18:59:00,54.3,49.2,30.12,North,355,9.0,11.0,83,0.00,,,0.01,102,Wunderground v.1.15,2013-05-05 23:59:00,
2013-05-05 19:04:00,54.2,49.1,30.12,North,360,9.0,11.0,83,0.00,,,0.01,79,Wunderground v.1.15,2013-05-06 00:04:00,
2013-05-05 19:09:00,54.1,49.1,30.11,North,360,9.0,11.0,83,0.00,,,0.01,88,Wunderground v.1.15,2013-05-06 00:09:00,
2013-05-05 19:14:00,54.0,49.0,30.11,NNE,18,9.0,9.0,83,0.00,,,0.01,70,Wunderground v.1.15,2013-05-06 00:14:00,
2013-05-05 19:19:00,54.1,49.1,30.11,NNE,17,7.0,9.0,83,0.00,,,0.01,65,Wunderground v.1.15,2013-05-06 00:19:00,
2013-05-05 19:24:00,54.1,49.1,30.11,NNE,15,5.0,8.0,83,0.00,,,0.01,77,Wunderground v.1.15,2013-05-06 00:24:00,
2013-05-05 19:30:00,54.0,49.0,30.11,NNE,19,7.0,7.0,83,0.00,,,0.01,95,Wunderground v.1.15,2013-05-06 00:30:00,
2013-05-05 19:36:00,54.1,49.1,30.11,NNE,21,6.0,8.0,83,0.00,,,0.01,77,Wunderground v.1.15,2013-05-06 00:36:00,
2013-05-05 19:42:00,54.0,49.0,30.11,North,5,5.0,6.0,83,0.00,,,0.01,60,Wunderground v.1.15,2013-05-06 00:42:00,
2013-05-05 19:47:00,53.9,49.2,30.11,North,5,5.0,6.0,84,0.00,,,0.01,53,Wunderground v.1.15,2013-05-06 00:47:00,
2013-05-05 19:52:00,53.9,48.9,30.11,NNE,19,4.0,4.0,83,0.00,,,0.01,39,Wunderground v.1.15,2013-05-06 00:52:00,
2013-05-05 19:57:00,53.8,49.1,30.11,NE,36,5.0,6.0,84,0.00,,,0.01,33,Wunderground v.1.15,2013-05-06 00:57:00,
2013-05-05 20:03:00,53.7,49.0,30.11,NNE,17,5.0,7.0,84,0.00,,,0.01,25,Wunderground v.1.15,2013-05-06 01:03:00,
2013-05-05 20:09:00,53.7,49.0,30.11,NNE,24,5.0,7.0,84,0.00,,,0.01,16,Wunderground v.1.15,2013-05-06 01:09:00,
2013-05-05 20:14:00,53.6,48.9,30.11,NNE,18,5.0,9.0,84,0.00,,,0.01,12,Wunderground v.1.15,2013-05-06 01:14:00,
2013-05-05 20:19:00,53.6,48.9,30.11,NNE,21,4.0,9.0,84,0.00,,,0.01,9,Wunderground v.1.15,2013-05-06 01:19:00,
2013-05-05 20:25:00,53.5,49.1,30.11,NNE,33,3.0,6.0,85,0.00,,,0.01,5,Wunderground v.1.15,2013-05-06 01:25:00,
2013-05-05 20:31:00,53.3,48.9,30.11,NNE,33,3.0,4.0,85,0.00,,,0.01,0,Wunderground v.1.15,2013-05-06 01:31:00,
2013-05-05 20:37:00,53.2,48.8,30.11,NNE,32,3.0,6.0,85,0.00,,,0.01,0,Wunderground v.1.15,2013-05-06 01:37:00,
2013-05-05 20:42:00,53.1,48.7,30.12,NNE,32,3.0,5.0,85,0.00,,,0.01,0,Wunderground v.1.15,2013-05-06 01:42:00,
2013-05-05 20:47:00,53.1,48.7,30.11,NNE,32,3.0,5.0,85,0.00,,,0.01,0,Wunderground v.1.15,2013-05-06 01:47:00,
2013-05-05 20:52:00,53.0,48.6,30.12,NE,36,3.0,6.0,85,0.00,,,0.01,0,Wunderground v.1.15,2013-05-06 01:52:00,
2013-05-05 20:57:00,53.0,48.9,30.12,NE,34,3.0,6.0,86,0.00,,,0.01,0,Wunderground v.1.15,2013-05-06 01:57:00,
2013-05-05 21:03:00,52.9,48.8,30.12,NE,34,4.0,6.0,86,0.00,,,0.01,0,Wunderground v.1.15,2013-05-06 02:03:00,
2013-05-05 21:08:00,52.8,48.7,30.12,NNE,33,4.0,6.0,86,0.00,,,0.01,0,Wunderground v.1.15,2013-05-06 02:08:00,
2013-05-05 21:13:00,52.8,48.7,30.12,NE,34,4.0,5.0,86,0.00,,,0.01,0,Wunderground v.1.15,2013-05-06 02:13:00,
2013-05-05 21:19:00,52.8,48.7,30.12,NNE,33,3.0,5.0,86,0.00,,,0.01,0,Wunderground v.1.15,2013-05-06 02:19:00,
2013-05-05 21:25:00,52.7,48.6,30.12,NNE,33,3.0,5.0,86,0.00,,,0.01,0,Wunderground v.1.15,2013-05-06 02:25:00,
2013-05-05 21:31:00,52.7,48.6,30.12,NE,34,3.0,3.0,86,0.00,,,0.01,0,Wunderground v.1.15,2013-05-06 02:31:00,
2013-05-05 21:37:00,52.6,48.8,30.12,NNE,33,2.0,4.0,87,0.00,,,0.01,0,Wunderground v.1.15,2013-05-06 02:37:00,
2013-05-05 21:43:00,52.6,48.8,30.12,NE,34,2.0,3.0,87,0.00,,,0.01,0,Wunderground v.1.15,2013-05-06 02:43:00,
2013-05-05 21:48:00,52.6,48.8,30.13,NNE,33,2.0,3.0,87,0.00,,,0.01,0,Wunderground v.1.15,2013-05-06 02:48:00,
2013-05-05 21:53:00,52.5,48.7,30.13,NNE,33,3.0,8.0,87,0.00,,,0.01,0,Wunderground v.1.15,2013-05-06 02:53:00,
2013-05-05 21:59:00,52.5,48.7,30.13,NNE,32,3.0,8.0,87,0.00,,,0.01,0,Wunderground v.1.15,2013-05-06 02:59:00,
2013-05-05 22:05:00,52.5,48.7,30.14,NNE,32,4.0,5.0,87,0.00,,,0.01,0,Wunderground v.1.15,2013-05-06 03:05:00,
2013-05-05 22:10:00,52.4,48.6,30.14,NNE,32,3.0,3.0,87,0.00,,,0.01,0,Wunderground v.1.15,2013-05-06 03:10:00,
2013-05-05 22:15:00,52.2,48.4,30.14,NNE,32,3.0,4.0,87,0.00,,,0.01,0,Wunderground v.1.15,2013-05-06 03:15:00,
2013-05-05 22:21:00,52.1,48.3,30.14,North,11,4.0,5.0,87,0.00,,,0.01,0,Wunderground v.1.15,2013-05-06 03:21:00,
2013-05-05 22:27:00,52.1,48.7,30.14,North,11,4.0,5.0,88,0.00,,,0.01,0,Wunderground v.1.15,2013-05-06 03:27:00,
2013-05-05 22:32:00,52.0,48.6,30.14,North,11,4.0,5.0,88,0.00,,,0.01,0,Wunderground v.1.15,2013-05-06 03:32:00,
2013-05-05 22:37:00,51.9,48.5,30.14,North,11,4.0,5.0,88,0.00,,,0.01,0,Wunderground v.1.15,2013-05-06 03:37:00,
2013-05-05 22:42:00,51.8,48.4,30.14,North,11,4.0,5.0,88,0.00,,,0.01,0,Wunderground v.1.15,2013-05-06 03:42:00,
2013-05-05 22:47:00,51.7,48.3,30.14,North,11,4.0,7.0,88,0.00,,,0.01,0,Wunderground v.1.15,2013-05-06 03:47:00,
2013-05-05 22:53:00,51.7,48.3,30.14,North,5,4.0,5.0,88,0.00,,,0.01,0,Wunderground v.1.15,2013-05-06 03:53:00,
2013-05-05 22:58:00,51.6,48.2,30.14,North,5,5.0,8.0,88,0.00,,,0.01,0,Wunderground v.1.15,2013-05-06 03:58:00,
2013-05-05 23:01:00,51.5,48.1,30.14,North,5,5.0,5.0,88,0.00,,,0.01,0,Wunderground v.1.15,2013-05-06 04:01:00,
2013-05-05 23:02:00,51.5,48.1,30.14,North,5,5.0,6.0,88,0.00,,,0.01,0,Wunderground v.1.15,2013-05-06 04:02:00,
2013-05-05 23:03:00,51.5,48.4,30.14,North,5,5.0,6.0,89,0.00,,,0.01,0,Wunderground v.1.15,2013-05-06 04:03:00,
2013-05-05 23:04:00,51.5,48.4,30.14,North,5,5.0,6.0,89,0.00,,,0.01,0,Wunderground v.1.15,2013-05-06 04:04:00,
2013-05-05 23:09:00,51.4,48.3,30.14,North,5,5.0,6.0,89,0.00,,,0.01,0,Wunderground v.1.15,2013-05-06 04:09:00,
2013-05-05 23:12:00,51.4,48.3,30.14,North,360,5.0,8.0,89,0.00,,,0.01,0,Wunderground v.1.15,2013-05-06 04:12:00,
2013-05-05 23:17:00,51.3,48.2,30.14,North,355,6.0,8.0,89,0.00,,,0.01,0,Wunderground v.1.15,2013-05-06 04:17:00,
2013-05-05 23:22:00,51.3,48.2,30.14,North,355,6.0,6.0,89,0.00,,,0.01,0,Wunderground v.1.15,2013-05-06 04:22:00,
2013-05-05 23:28:00,51.2,48.1,30.14,North,355,5.0,8.0,89,0.00,,,0.01,0,Wunderground v.1.15,2013-05-06 04:28:00,
2013-05-05 23:33:00,51.0,47.9,30.13,North,355,6.0,9.0,89,0.00,,,0.01,0,Wunderground v.1.15,2013-05-06 04:33:00,
2013-05-05 23:38:00,50.9,47.8,30.13,North,355,6.0,9.0,89,0.00,,,0.01,0,Wunderground v.1.15,2013-05-06 04:38:00,
2013-05-05 23:43:00,50.8,47.7,30.13,North,355,6.0,6.0,89,0.00,,,0.01,0,Wunderground v.1.15,2013-05-06 04:43:00,
2013-05-05 23:49:00,50.7,47.6,30.13,North,355,6.0,8.0,89,0.00,,,0.01,0,Wunderground v.1.15,2013-05-06 04:49:00,
2013-05-05 23:54:00,50.6,47.5,30.13,North,355,6.0,6.0,89,0.00,,,0.01,0,Wunderground v.1.15,2013-05-06 04:54:00,